• In Uzbekistan
  • List of Countries
  • For 7 days
  • Water Temperature
  • Satellite Maps
  • Weather Map
  • Weather Widgets
  • user-avatar
    Login

    Hourly Weather San Luis

    Today, 20 February, Monday

    Time Temperature Precipitation Wind Pressure Humidity
    00:00 +26°C° 0 mm 5 mps 698 mmHg 50%
    01:00 +26°C° 0 mm 6 mps 698 mmHg 55%
    02:00 +26°C° 0 mm 7 mps 698 mmHg 61%
    03:00 +24°C° 0 mm 7 mps 698 mmHg 64%
    04:00 +24°C° 0 mm 7 mps 699 mmHg 68%
    05:00 +24°C° 0 mm 6 mps 699 mmHg 72%
    06:00 +26°C° 0 mm 6 mps 699 mmHg 67%
    07:00 +27°C° 0 mm 6 mps 700 mmHg 62%
    08:00 +28°C° 0 mm 6 mps 700 mmHg 58%
    09:00 +30°C° 0 mm 6 mps 700 mmHg 50%
    10:00 +33°C° 0 mm 5 mps 701 mmHg 41%
    11:00 +35°C° 0 mm 5 mps 701 mmHg 33%
    12:00 +36°C° 0 mm 4 mps 700 mmHg 30%
    13:00 +37°C° 0 mm 4 mps 700 mmHg 27%
    14:00 +38°C° 0 mm 3 mps 699 mmHg 24%
    15:00 +38°C° 0 mm 4 mps 699 mmHg 25%
    16:00 +38°C° 0 mm 4 mps 698 mmHg 25%
    17:00 +38°C° 0 mm 4 mps 698 mmHg 25%
    18:00 +36°C° 0 mm 4 mps 697 mmHg 30%
    19:00 +34°C° 0 mm 3 mps 697 mmHg 36%
    20:00 +30°C° 0 mm 3 mps 697 mmHg 41%
    21:00 +30°C° 0 mm 4 mps 698 mmHg 45%
    22:00 +29°C° 0 mm 4 mps 698 mmHg 48%
    23:00 +29°C° 0 mm 4 mps 698 mmHg 52%

    Tomorrow, 21 February, Tuesday

    Time Temperature Precipitation Wind Pressure Humidity
    00:00 +28°C° 0.1 mm 5 mps 698 mmHg 55%
    01:00 +28°C° 0.1 mm 6 mps 698 mmHg 58%
    02:00 +28°C° 0.1 mm 7 mps 698 mmHg 61%
    03:00 +27°C° 0.1 mm 7 mps 698 mmHg 64%
    04:00 +27°C° 0.1 mm 6 mps 698 mmHg 66%
    05:00 +26°C° 0.1 mm 6 mps 698 mmHg 69%
    06:00 +27°C° 0.1 mm 6 mps 699 mmHg 66%
    07:00 +28°C° 0.1 mm 5 mps 699 mmHg 62%
    08:00 +29°C° 0.1 mm 5 mps 700 mmHg 59%
    09:00 +32°C° 0.2 mm 4 mps 700 mmHg 52%
    10:00 +33°C° 0.2 mm 4 mps 701 mmHg 44%
    11:00 +35°C° 0.2 mm 3 mps 701 mmHg 37%
    12:00 +36°C° 0.1 mm 2 mps 700 mmHg 35%
    13:00 +36°C° 0.1 mm 2 mps 700 mmHg 33%
    14:00 +36°C° 0.1 mm 2 mps 699 mmHg 32%
    15:00 +36°C° 0.1 mm 2 mps 699 mmHg 32%
    16:00 +36°C° 0.1 mm 3 mps 698 mmHg 32%
    17:00 +36°C° 0.1 mm 3 mps 698 mmHg 32%
    18:00 +35°C° 0 mm 3 mps 698 mmHg 36%
    19:00 +33°C° 0 mm 3 mps 698 mmHg 40%
    20:00 +30°C° 0 mm 3 mps 698 mmHg 44%
    21:00 +30°C° 0.1 mm 3 mps 698 mmHg 47%
    22:00 +29°C° 0.1 mm 3 mps 698 mmHg 50%
    23:00 +28°C° 0.1 mm 3 mps 699 mmHg 52%

    Day after tomorrow, 22 February, Wednesday

    Time Temperature Precipitation Wind Pressure Humidity
    00:00 +28°C° 0.2 mm 3 mps 698 mmHg 55%
    01:00 +27°C° 0.2 mm 3 mps 698 mmHg 58%
    02:00 +27°C° 0.2 mm 4 mps 698 mmHg 62%
    03:00 +27°C° 0.2 mm 4 mps 698 mmHg 63%
    04:00 +26°C° 0.2 mm 3 mps 697 mmHg 65%
    05:00 +26°C° 0.2 mm 3 mps 697 mmHg 67%
    06:00 +27°C° 0 mm 3 mps 698 mmHg 62%
    07:00 +28°C° 0 mm 3 mps 698 mmHg 58%
    08:00 +29°C° 0 mm 3 mps 699 mmHg 54%
    09:00 +31°C° 0.1 mm 2 mps 699 mmHg 48%
    10:00 +34°C° 0.1 mm 2 mps 699 mmHg 41%
    11:00 +34°C° 0.1 mm 1 mps 699 mmHg 35%
    12:00 +35°C° 0.1 mm 1 mps 699 mmHg 33%
    13:00 +35°C° 0.1 mm 1 mps 698 mmHg 30%
    14:00 +36°C° 0.1 mm 1 mps 698 mmHg 28%
    15:00 +37°C° 0.1 mm 2 mps 697 mmHg 28%
    16:00 +37°C° 0.1 mm 2 mps 696 mmHg 28%
    17:00 +37°C° 0.1 mm 2 mps 696 mmHg 27%
    18:00 +35°C° 0.3 mm 2 mps 696 mmHg 33%
    19:00 +33°C° 0.3 mm 3 mps 696 mmHg 38%
    20:00 +31°C° 0.3 mm 3 mps 696 mmHg 43%
    21:00 +30°C° 0.3 mm 4 mps 696 mmHg 46%
    22:00 +30°C° 0.3 mm 4 mps 696 mmHg 48%
    23:00 +29°C° 0.3 mm 5 mps 697 mmHg 51%

    23 February, Thursday

    Time Temperature Precipitation Wind Pressure Humidity
    00:00 +29°C° 0.2 mm 5 mps 696 mmHg 52%
    01:00 +28°C° 0.2 mm 5 mps 696 mmHg 53%
    02:00 +28°C° 0.2 mm 5 mps 696 mmHg 55%
    03:00 +27°C° 0.3 mm 5 mps 696 mmHg 56%
    04:00 +27°C° 0.3 mm 4 mps 696 mmHg 57%
    05:00 +27°C° 0.3 mm 4 mps 696 mmHg 58%
    06:00 +28°C° 0 mm 4 mps 697 mmHg 55%
    07:00 +29°C° 0 mm 4 mps 697 mmHg 51%
    08:00 +30°C° 0 mm 4 mps 698 mmHg 48%
    09:00 +33°C° 0 mm 3 mps 698 mmHg 42%
    10:00 +35°C° 0 mm 3 mps 698 mmHg 36%
    11:00 +36°C° 0 mm 2 mps 699 mmHg 30%
    12:00 +37°C° 0 mm 2 mps 698 mmHg 28%
    13:00 +38°C° 0 mm 2 mps 697 mmHg 27%
    14:00 +38°C° 0 mm 2 mps 697 mmHg 25%
    15:00 +38°C° 0.3 mm 2 mps 697 mmHg 26%
    16:00 +37°C° 0.3 mm 3 mps 696 mmHg 27%
    17:00 +37°C° 0.3 mm 3 mps 696 mmHg 28%
    18:00 +35°C° 0.3 mm 3 mps 696 mmHg 32%
    19:00 +34°C° 0.3 mm 3 mps 696 mmHg 36%
    20:00 +31°C° 0.3 mm 3 mps 696 mmHg 40%
    21:00 +30°C° 0 mm 3 mps 696 mmHg 43%
    22:00 +30°C° 0 mm 3 mps 696 mmHg 45%
    23:00 +29°C° 0 mm 3 mps 696 mmHg 48%

    24 February, Friday

    Time Temperature Precipitation Wind Pressure Humidity
    00:00 +29°C° 0 mm 3 mps 696 mmHg 48%
    01:00 +29°C° 0 mm 4 mps 696 mmHg 48%
    02:00 +28°C° 0 mm 4 mps 696 mmHg 49%
    03:00 +28°C° 0 mm 4 mps 696 mmHg 49%
    04:00 +28°C° 0 mm 4 mps 696 mmHg 49%
    05:00 +27°C° 0 mm 4 mps 696 mmHg 50%
    06:00 +29°C° 0 mm 4 mps 696 mmHg 47%
    07:00 +30°C° 0 mm 5 mps 697 mmHg 45%
    08:00 +32°C° 0 mm 5 mps 698 mmHg 42%
    09:00 +34°C° 0.2 mm 5 mps 698 mmHg 38%
    10:00 +35°C° 0.2 mm 4 mps 698 mmHg 34%
    11:00 +37°C° 0.2 mm 4 mps 698 mmHg 30%
    12:00 +37°C° 0.3 mm 4 mps 698 mmHg 29%
    13:00 +38°C° 0.3 mm 4 mps 697 mmHg 28%
    14:00 +38°C° 0.3 mm 3 mps 697 mmHg 28%
    15:00 +38°C° 0.4 mm 4 mps 696 mmHg 28%
    16:00 +38°C° 0.4 mm 4 mps 696 mmHg 29%
    17:00 +38°C° 0.4 mm 4 mps 695 mmHg 29%
    18:00 +36°C° 0.1 mm 4 mps 695 mmHg 33%
    19:00 +34°C° 0.1 mm 4 mps 695 mmHg 38%
    20:00 +32°C° 0.1 mm 4 mps 695 mmHg 42%
    21:00 +30°C° 0.1 mm 4 mps 695 mmHg 44%
    22:00 +30°C° 0.1 mm 4 mps 696 mmHg 46%
    23:00 +29°C° 0.1 mm 4 mps 696 mmHg 48%

    25 February, Saturday

    Time Temperature Precipitation Wind Pressure Humidity
    00:00 +29°C° 0.3 mm 4 mps 696 mmHg 50%
    01:00 +28°C° 0.3 mm 4 mps 695 mmHg 52%
    02:00 +28°C° 0.3 mm 4 mps 695 mmHg 53%
    03:00 +27°C° 0.6 mm 4 mps 695 mmHg 55%
    04:00 +27°C° 0.6 mm 4 mps 695 mmHg 58%
    05:00 +26°C° 0.6 mm 4 mps 695 mmHg 60%
    06:00 +27°C° 0.3 mm 5 mps 696 mmHg 58%
    07:00 +28°C° 0.3 mm 6 mps 696 mmHg 55%
    08:00 +29°C° 0.3 mm 6 mps 697 mmHg 53%
    09:00 +32°C° 0.4 mm 6 mps 697 mmHg 47%
    10:00 +34°C° 0.4 mm 6 mps 697 mmHg 41%
    11:00 +36°C° 0.4 mm 6 mps 697 mmHg 35%
    12:00 +36°C° 0.3 mm 6 mps 697 mmHg 33%
    13:00 +38°C° 0.3 mm 6 mps 696 mmHg 32%
    14:00 +37°C° 0.3 mm 5 mps 695 mmHg 30%
    15:00 +37°C° 0.4 mm 5 mps 695 mmHg 32%
    16:00 +36°C° 0.4 mm 5 mps 695 mmHg 33%
    17:00 +36°C° 0.4 mm 5 mps 694 mmHg 34%
    18:00 +34°C° 0.3 mm 4 mps 694 mmHg 39%
    19:00 +32°C° 0.3 mm 4 mps 694 mmHg 44%
    20:00 +30°C° 0.3 mm 4 mps 694 mmHg 49%
    21:00 +29°C° 0.5 mm 4 mps 694 mmHg 53%
    22:00 +28°C° 0.5 mm 4 mps 694 mmHg 56%
    23:00 +27°C° 0.5 mm 3 mps 695 mmHg 60%
    Show more